Tobias Bolanos Internatio, Costa Rica

3:58 PM CST on September 26, 2016 (GMT -0600)
Tobias Bolanos International

Weather History for MRPV - May, 2012

Change the Weather History Date:

Tuesday, May 1, 2012

  Actual Average Record
Temperature  
Mean Temperature 76 °F -  
Max Temperature 83 °F 80 °F 84 °F (1997)
Min Temperature 68 °F 69 °F 64 °F (2008)
Cooling Degree Days 10    
Growing Degree Days 26 (Base 50)    
Moisture  
Dew Point 65 °F    
Average Humidity 75    
Maximum Humidity 100    
Minimum Humidity 42    
Precipitation  
Precipitation 1.06 in - - ()
Sea Level Pressure  
Sea Level Pressure 29.93 in    
Wind  
Wind Speed 9 mph ()    
Max Wind Speed 15 mph    
Max Gust Speed -    
Visibility 4.1 miles    
Events Rain , Thunderstorm    
Averages and records for this station are not official NWS values.
T = Trace of Precipitation, MM = Missing Value Source: Averaged Metar Reports

Daily Weather History Graph

Daily Weather History Graph

Search for Another Location

Airport or City:

Trip Planner

Search our weather history database for the weather conditions in past years. The results will help you decide how hot, cold, wet, or windy it might be!

Date:

Astronomy

May. 01, 2012 Rise Set
Actual Time 5:19 AM CST 5:48 PM CST
Civil Twilight 4:57 AM CST 6:10 PM CST
Nautical Twilight 4:31 AM CST 6:35 PM CST
Astronomical Twilight 4:05 AM CST 7:01 PM CST
Moon 1:40 PM CST (5/1) 1:19 AM CST (5/1)
Length of Visible Light 13h 12m
Length of Day
12h 29m
Waxing Gibbous, 74% of the Moon is Illuminated
May 1
Waxing Gibbous
May 5
Full
May 12
Last Quarter
May 20
New
May 28
First Quarter

Hourly Weather History & Observations

Time (CST) Temp. Heat Index Dew Point Humidity Pressure Visibility Wind Dir Wind Speed Gust Speed Precip Events Conditions
6:00 AM 69 °F - 60 °F 65% 29.94 in 6 mi ESE 10.4 mph - -   Mostly Cloudy
6:00 AM 69.8 °F - 60.8 °F 73% 29.93 in - ESE 10.4 mph - N/A   Clear
7:00 AM 73.4 °F - 60.8 °F 65% 29.96 in 6.2 mi ESE 11.5 mph - N/A   Mostly Cloudy
8:00 AM 75.2 °F - 60.8 °F 61% 29.97 in 6.2 mi East 12.7 mph - N/A   Mostly Cloudy
9:00 AM 78 °F - 62 °F 48% 29.95 in 6 mi ENE 10.4 mph - -   Scattered Clouds
9:00 AM 78.8 °F - 62.6 °F 57% 29.96 in 6.2 mi ENE 10.4 mph - N/A   Scattered Clouds
10:00 AM 80.6 °F 81.8 °F 62.6 °F 54% 29.96 in 6.2 mi ENE 15.0 mph - N/A   Scattered Clouds
11:00 AM 80.6 °F 81.8 °F 62.6 °F 54% 29.95 in 6.2 mi ENE 12.7 mph - N/A   Scattered Clouds
12:00 PM 82 °F - 62 °F 42% 29.93 in 6 mi ENE 10.4 mph - -   Overcast
12:00 PM 82.4 °F 83.4 °F 62.6 °F 51% 29.93 in 6.2 mi ENE 10.4 mph - N/A   Mostly Cloudy
1:00 PM 82.4 °F 83.9 °F 64.4 °F 54% 29.90 in 6.2 mi East 11.5 mph - N/A   Mostly Cloudy
1:20 PM 77.0 °F - 66.2 °F 69% 29.90 in 6.2 mi SW 9.2 mph - N/A Thunderstorm Mostly Cloudy
2:00 PM 75.2 °F - 68.0 °F 78% - 5.6 mi West 13.8 mph - N/A Rain Rain Showers
2:30 PM 73.4 °F - 68.0 °F 83% 29.89 in 1.9 mi WNW 11.5 mph - N/A Rain Rain Showers
2:37 PM 71.6 °F - 69.8 °F 94% 29.90 in 0.5 mi NE 9.2 mph - N/A Rain Heavy Rain Showers
3:00 PM 70 °F - 69 °F 96% 29.91 in 0 mi WNW 11.5 mph - -   Overcast
3:00 PM 69.8 °F - 69.8 °F 100% 29.91 in 0.4 mi WNW 11.5 mph - N/A Rain , Thunderstorm Heavy Thunderstorms and Rain
3:15 PM 69.8 °F - 68.0 °F 94% 29.90 in 3.1 mi WSW 9.2 mph - N/A Rain Rain
3:27 PM 69.8 °F - 69.8 °F 100% 29.90 in 1.9 mi West 6.9 mph - N/A Rain Light Rain
4:00 PM 69.8 °F - 69.8 °F 100% 29.91 in 1.9 mi WSW 5.8 mph - N/A Rain Light Rain
5:00 PM 69.8 °F - 68.0 °F 94% 29.92 in 2.5 mi West 4.6 mph - N/A Rain Light Rain
6:00 PM 70 °F - 68 °F 91% 29.94 in 2 mi South 2.3 mph - - Rain Light Rain
6:00 PM 69.8 °F - 68.0 °F 94% 29.97 in 2.5 mi South 2.3 mph - N/A Rain Light Rain